DW3212 Weather Reports


Display with metric or nautical units.
time (UTC)temp
F
wind
direction
speed
MPH
gust
MPH
rain 1hr
in
rain 24hr
in
rain mn
in
humidity
%
barometer
mb
20260831191601 72 0.0 0.0 0.00 0.00 0.00 54 1020.6
20260831190115 73 0.0 0.0 0.00 0.00 0.00 56 1020.5
20260831184605 71 0.0 0.0 0.00 0.00 0.00 62 1020.7
20260831183101 71 0.0 0.0 0.00 0.00 0.00 64 1020.9
20260831181603 72 0.0 0.0 0.00 0.00 0.00 58 1020.9
20260831180115 70 0.0 0.0 0.00 0.00 0.00 62 1021.0
20260831174559 70 0.0 0.0 0.00 0.00 0.00 63 1020.9
20260831173102 70 0.0 0.0 0.00 0.00 0.00 67 1021.0
20260831171604 70 0.0 0.0 0.00 0.00 0.00 67 1021.1
20260831170119 70 0.0 0.0 0.00 0.00 0.00 67 1021.1
20260831164607 69 0.0 0.0 0.00 0.00 0.00 67 1021.5
20260831163102 69 0.0 0.0 0.00 0.00 0.00 66 1021.4
20260831161605 70 0.0 0.0 0.00 0.00 0.00 64 1021.5
20260831160108 69 0.0 0.0 0.00 0.00 0.00 63 1021.6
20260831154622 70 0.0 0.0 0.00 0.00 0.00 65 1021.6
20260831153059 69 0.0 0.0 0.00 0.00 0.00 62 1021.7
20260831151602 70 0.0 0.0 0.00 0.00 0.00 65 1021.6
20260831150110 69 0.0 0.0 0.00 0.00 0.00 69 1021.5
20260831144606 68 0.0 0.0 0.00 0.00 0.00 67 1021.7
20260831143105 69 0.0 0.0 0.00 0.00 0.00 65 1021.6
20260831141611 69 0.0 0.0 0.00 0.00 0.00 63 1021.6
20260831134606 67 0.0 0.0 0.00 0.00 0.00 68 1021.5
20260831133104 67 0.0 0.0 0.00 0.00 0.00 70 1021.6
20260831131603 67 0.0 0.0 0.00 0.00 0.00 72 1021.6
20260831130109 66 0.0 0.0 0.00 0.00 0.00 69 1021.5
20260831124557 65 0.0 0.0 0.00 0.00 0.00 76 1021.6
20260831123058 64 0.0 0.0 0.00 0.00 0.00 77 1021.5
20260831121559 64 0.0 0.0 0.00 0.00 0.00 80 1021.5
20260831120124 62 0.0 0.0 0.00 0.00 0.00 82 1021.4
20260831114605 63 0.0 0.0 0.00 0.00 0.00 80 1021.2
20260831113107 61 0.0 0.0 0.00 0.00 0.00 87 1021.1
20260831111613 58 0.0 0.0 0.00 0.00 0.00 91 1020.9
20260831110105 56 0.0 0.0 0.00 0.00 0.00 94 1020.8
20260831104606 55 0.0 0.0 0.00 0.00 0.00 94 1020.8
20260831103105 54 0.0 0.0 0.00 0.00 0.00 95 1020.9
20260831101602 54 0.0 0.0 0.00 0.00 0.00 94 1020.8
20260831100114 55 0.0 0.0 0.00 0.00 0.00 94 1020.8
20260831094605 55 0.0 0.0 0.00 0.00 0.00 94 1020.8
20260831093101 56 0.0 0.0 0.00 0.00 0.00 94 1020.6
20260831091605 56 0.0 0.0 0.00 0.00 0.00 93 1020.5
20260831090107 57 0.0 0.0 0.00 0.00 0.00 92 1020.4
20260831084609 57 0.0 0.0 0.00 0.00 0.00 93 1020.4
20260831083102 57 0.0 0.0 0.00 0.00 0.00 93 1020.4
20260831081605 57 0.0 0.0 0.00 0.00 0.00 92 1020.3
20260831080137 58 0.0 0.0 0.00 0.00 0.00 90 1020.1
20260831074607 58 0.0 0.0 0.00 0.00 0.00 90 1020.0
20260831073116 59 0.0 0.0 0.00 0.00 0.00 90 1020.0
20260831071600 59 0.0 0.0 0.00 0.00 0.00 90 1020.1
20260831070104 59 0.0 0.0 0.00 0.00 0.00 91 1020.0
20260831064607 59 0.0 0.0 0.00 0.00 0.00 91 1019.9
20260831063106 59 0.0 0.0 0.00 0.00 0.00 91 1019.9
20260831061605 59 0.0 0.0 0.00 0.00 0.00 91 1020.0
20260831060100 59 0.0 0.0 0.00 0.00 0.00 91 1020.0
20260831054606 59 0.0 0.0 0.00 0.00 0.00 90 1019.9
20260831053103 59 0.0 0.0 0.00 0.00 0.00 89 1019.9
20260831051600 59 0.0 0.0 0.00 0.00 0.00 89 1019.7
20260831050058 60 0.0 0.0 0.00 0.00 0.00 90 1019.6
20260831044606 60 0.0 0.0 0.00 0.00 0.00 89 1019.7
20260831043103 60 0.0 0.0 0.00 0.00 0.00 89 1019.6
20260831041610 60 0.0 0.0 0.00 0.00 0.00 88 1019.4
20260831040110 60 0.0 0.0 0.00 0.00 0.00 88 1019.7
20260831034612 60 0.0 0.0 0.00 0.00 0.00 88 1019.7
20260831033107 60 0.0 0.0 0.00 0.00 0.00 89 1019.7
20260831031602 60 0.0 0.0 0.00 0.00 0.00 88 1019.7
20260831030103 60 0.0 0.0 0.00 0.00 0.00 89 1020.0
20260831024607 60 0.0 0.0 0.00 0.00 0.00 89 1020.1
20260831023100 60 0.0 0.0 0.00 0.00 0.00 89 1019.9
20260831021600 60 0.0 0.0 0.00 0.00 0.00 89 1019.6
20260831020104 61 0.0 0.0 0.00 0.00 0.00 88 1019.6
20260831014600 61 0.0 0.0 0.00 0.00 0.00 87 1019.7
20260831013111 62 0.0 0.0 0.00 0.00 0.00 87 1019.3
20260831011559 62 0.0 0.0 0.00 0.00 0.00 87 1019.5
20260831010123 62 0.0 0.0 0.00 0.00 0.00 86 1019.4
20260831004611 62 0.0 0.0 0.00 0.00 0.00 86 1019.2
20260831003107 62 0.0 0.0 0.00 0.00 0.00 86 1018.6
20260831001600 61 0.0 0.0 0.00 0.00 0.00 86 1018.3
20260831000103 62 0.0 0.0 0.00 0.00 0.00 85 1018.3
20260830234600 62 0.0 0.0 0.00 0.00 0.00 86 1018.2
20260830233102 62 0.0 0.0 0.00 0.00 0.00 85 1018.3
20260830231604 62 0.0 0.0 0.00 0.00 0.00 84 1018.7
20260830230103 64 0.0 0.0 0.00 0.00 0.00 84 1018.7
20260830224608 65 0.0 0.0 0.00 0.00 0.00 82 1018.6
20260830223105 65 0.0 0.0 0.00 0.00 0.00 83 1018.6
20260830221600 66 0.0 0.0 0.00 0.00 0.00 81 1018.4
20260830220104 66 0.0 0.0 0.00 0.00 0.00 79 1018.4
20260830214600 67 0.0 0.0 0.00 0.00 0.00 78 1018.6
20260830213059 67 0.0 0.0 0.00 0.00 0.00 78 1018.4
20260830211558 67 0.0 0.0 0.00 0.00 0.00 78 1018.5
20260830210100 68 0.0 0.0 0.00 0.00 0.00 76 1018.6
20260830204604 68 0.0 0.0 0.00 0.00 0.00 74 1018.8
20260830203101 68 0.0 0.0 0.00 0.00 0.00 74 1018.8
20260830201601 68 0.0 0.0 0.00 0.00 0.00 75 1018.7
20260830200105 69 0.0 0.0 0.00 0.00 0.00 74 1019.0
20260830194613 69 0.0 0.0 0.00 0.00 0.00 74 1018.9
20260830193106 69 0.0 0.0 0.00 0.00 0.00 72 1019.2